SCP
0 0 0 0 0 0 0 0 0 0 0 0 0 0 0 0 0 0 0 0 0 0 0 1 0 0 0 0 0 0 0 0 0 0 0 0 0 -0 -0 0 0 -0 0 -0 -0 -0 -0 -0 -0
0 0 0 0 0 0 0 0 0 0 0 0 0 0 0 0 0 0 0 0 0 0 1 1 1 0 0 0 0 0 0 0 0 0 0 0 0 0 0 0 0 -0 0 0 -0 -0 -0 -0 -0
0 0 0 0 0 0 0 0 0 0 0 0 0 0 0 0 0 0 0 0 0 0 0 0 0 0 0 0 0 0 0 0 0 0 0 0 0 0 0 0 0 0 0 -0 -0 -0 -0 -0 -0
0 0 0 0 0 0 0 0 0 0 0 0 0 0 0 0 0 0 0 -0 -0 1 0 0 0 1 0 0 0 0 0 0 0 0 0 0 0 0 0 0 0 0 0 0 -0 -0 -0 -0 -0
0 0 0 0 0 0 0 0 0 0 0 0 0 0 0 1 0 0 0 0 -0 1 1 1 1 1 1 0 0 0 0 0 0 0 0 0 0 0 0 0 0 0 0 0 0 -0 0 0 0
0 0 0 0 0 0 0 0 0 0 0 0 0 0 0 0 1 1 1 0 0 1 1 1 1 1 1 0 0 0 0 0 0 0 0 0 0 0 0 0 0 0 0 0 0 0 0 0 0
0 0 0 0 0 0 0 0 0 0 0 0 0 0 0 1 1 1 1 1 1 1 1 1 1 1 1 1 0 0 0 0 0 0 0 0 0 0 0 0 0 0 0 0 0 0 0 0 0
0 0 0 0 0 0 0 0 0 0 0 0 0 0 0 1 1 2 1 1 1 1 1 1 1 1 1 0 0 0 0 0 0 0 0 0 0 0 0 0 0 0 0 0 0 0 0 0 0
0 0 0 0 0 0 0 0 0 0 0 0 0 0 0 1 1 1 1 1 1 1 1 1 1 1 0 1 0 0 0 0 0 0 0 0 0 0 0 0 0 0 0 0 0 0 0 0 0
0 0 0 0 0 0 0 0 0 0 0 0 0 0 0 0 0 0 1 0 1 1 1 1 1 1 1 1 0 0 0 0 0 0 0 0 0 0 0 0 0 0 0 0 0 0 0 0 0
0 0 0 0 0 0 0 0 0 0 0 0 0 0 0 0 0 0 0 0 1 1 1 1 1 0 0 1 0 0 0 0 0 0 0 0 0 0 0 0 0 0 0 0 0 0 0 0 0
0 0 0 0 0 0 0 0 0 0 0 0 0 0 0 0 0 0 0 0 0 1 1 1 1 0 1 0 0 0 0 0 0 0 0 0 0 0 0 0 0 0 0 0 0 0 0 0 0
0 0 0 0 0 0 0 0 0 0 0 0 0 0 0 0 0 0 0 0 0 0 1 1 1 0 1 0 0 0 0 0 0 0 0 0 0 0 0 0 0 0 0 0 0 0 0 0 0
0 0 0 0 0 0 0 0 0 0 0 0 0 0 0 0 0 0 0 0 0 0 0 1 1 1 1 0 0 0 1 1 0 0 0 0 0 0 0 0 0 0 0 0 0 0 0 0 0
0 0 0 0 0 0 0 0 0 0 0 0 0 0 0 0 0 0 0 0 0 0 0 0 1 1 0 0 0 0 0 0 1 0 0 0 0 0 0 0 0 0 0 0 0 0 0 0 0
0 0 0 0 0 0 0 0 0 0 0 0 0 0 0 0 0 0 0 0 0 0 0 0 0 1 1 0 0 0 0 0 0 0 0 0 0 0 0 0 0 0 0 0 0 0 0 0 0
0 0 0 0 0 0 0 0 0 0 0 0 0 0 0 0 0 0 0 0 0 0 0 0 0 0 0 0 0 0 0 0 0 0 0 0 0 0 0 0 0 0 0 0 0 0 0 0 0
0 0 0 0 0 0 0 -0 0 0 0 0 0 0 0 0 0 0 0 0 0 0 0 0 0 0 0 0 0 0 0 0 0 0 0 0 0 0 0 0 0 0 0 0 0 0 0 0 0
0 0 0 0 0 -0 -0 0 -0 0 0 0 0 0 0 0 0 0 0 0 0 0 0 0 0 0 0 0 0 0 0 0 0 0 0 0 0 0 0 0 0 0 0 0 0 0 0 0 0
0 0 -0 -0 0 0 0 -0 -0 0 0 0 0 0 0 0 0 0 0 0 0 0 0 0 0 0 0 0 0 0 0 0 0 0 0 0 0 0 0 0 0 0 0 0 0 0 0 0 0
0 0 0 0 0 0 0 -0 -0 -0 0 0 0 0 0 0 0 0 0 0 0 0 0 0 0 0 1 0 0 0 0 0 0 0 0 0 0 0 0 0 0 0 0 0 0 0 0 0 0
0 0 0 0 0 0 0 0 0 0 0 -0 0 0 0 0 0 0 0 0 0 0 0 0 0 0 0 0 0 0 0 0 0 0 0 0 0 0 0 0 0 0 0 0 0 0 0 0 0
0 0 0 0 0 0 0 0 0 0 0 0 0 0 0 0 0 0 0 0 0 0 0 0 0 0 0 0 0 0 0 0 0 0 0 0 0 0 0 0 0 0 0 0 0 0 0 0 0
0 0 0 0 0 0 0 0 0 0 0 0 0 0 0 0 0 0 0 0 0 0 0 0 0 0 0 0 0 0 0 0 0 0 0 0 0 0 0 0 0 0 0 0 0 0 0 0 0
0 0 0 0 0 0 0 0 0 0 0 0 0 0 0 0 0 0 0 0 0 0 0 0 0 0 0 0 0 0 0 0 0 0 0 0 0 0 0 0 0 0 0 0 0 0 0 0 0
0 0 0 0 0 0 0 0 0 0 0 0 -0 -0 0 0 0 0 0 0 0 0 0 0 0 0 0 0 0 0 0 0 0 0 0 0 0 0 0 0 0 0 0 0 0 0 0 0 0
0 0 0 0 0 0 0 0 0 0 0 0 0 0 0 0 0 0 0 0 0 0 0 0 0 0 0 0 0 0 0 0 0 0 0 0 0 0 0 0 0 0 0 0 0 0 0 0 0
0 0 0 0 0 0 0 0 -0 -0 0 -0 0 0 0 0 0 0 0 0 0 0 0 0 0 0 0 0 0 0 0 0 0 0 0 0 0 0 0 0 0 0 0 0 0 0 0 0 0
0 0 0 0 0 0 0 0 -0 0 0 -0 -0 -0 0 0 0 0 0 0 0 0 0 0 0 0 0 0 0 0 0 0 0 0 0 0 0 0 0 0 0 0 0 0 0 0 0 0 0
0 0 0 0 0 0 0 0 0 -0 0 -0 -0 -0 0 0 0 0 0 0 0 0 0 0 0 0 0 0 0 0 0 0 0 0 0 0 0 0 0 0 0 0 0 0 0 0 0 0 0
Wind_Speed_500mb
19 10 13 17 10 10 26 28 27 28 10 2 11 13 2 24 5 4 19 17 22 31 29 44 45 44 43 40 38 36 35 35 31 28 25 22 23 22 21 19 12 16 35 29 29 28 23 28 22
12 13 12 15 13 22 25 28 30 22 27 19 10 9 10 13 23 10 6 10 25 32 37 46 46 46 45 41 39 38 37 34 33 28 25 22 21 19 18 23 21 20 28 24 21 32 26 28 23
6 10 11 8 15 38 16 20 21 34 30 25 11 7 11 6 9 10 2 7 32 37 37 42 48 47 45 42 41 39 38 36 32 28 26 25 23 23 24 28 28 23 26 24 19 25 24 22 21
6 9 15 15 43 36 45 31 39 19 26 28 29 8 21 10 8 3 9 7 30 37 37 36 47 47 46 45 42 39 38 36 32 29 27 27 26 23 21 22 21 15 28 22 21 23 23 20 19
10 15 18 26 48 45 35 35 44 31 21 32 34 19 31 11 9 9 7 3 27 37 37 38 46 48 47 46 43 40 38 37 34 31 30 30 28 23 19 20 20 21 22 15 22 21 22 20 19
13 15 17 33 45 35 32 51 56 26 25 27 31 24 21 16 19 19 10 7 25 37 35 43 46 50 50 48 45 41 39 38 36 33 35 32 29 25 19 19 22 24 21 19 21 21 20 20 18
19 15 30 41 39 38 29 45 39 41 28 31 34 15 35 21 14 13 15 15 29 34 37 46 47 50 50 49 47 43 42 40 38 37 37 35 29 26 21 19 22 25 23 13 18 19 17 18 16
18 11 26 26 29 47 36 60 66 42 33 46 48 22 17 22 8 5 4 14 22 30 37 41 50 53 52 50 48 44 43 41 40 39 38 37 32 26 23 20 22 20 22 18 20 20 18 16 15
17 11 19 25 30 36 45 28 54 37 3 5 20 31 6 9 16 10 3 12 18 25 38 43 48 55 56 55 51 48 46 44 42 41 40 39 37 31 25 23 22 22 21 18 22 21 18 15 14
11 15 18 19 21 27 40 38 48 29 30 4 16 18 8 7 5 11 6 8 25 27 38 49 51 60 60 58 56 54 51 50 47 44 42 42 41 36 32 27 26 24 26 22 25 24 21 17 13
12 26 30 45 50 44 35 43 47 39 23 12 22 33 10 7 8 6 11 15 22 24 36 44 54 57 60 61 60 60 59 55 52 51 48 45 45 40 35 32 30 25 23 28 29 28 24 19 14
27 34 41 49 49 40 33 52 41 52 46 48 45 35 32 20 18 19 11 16 20 26 34 42 53 55 58 61 59 58 60 55 57 56 53 52 50 42 41 38 33 29 27 30 30 29 26 26 23
28 34 44 48 45 42 44 42 46 68 57 58 60 52 45 25 35 29 24 24 31 15 30 35 44 54 57 64 62 51 55 49 52 56 55 58 55 48 45 38 32 29 25 31 30 30 31 27 26
36 48 45 52 54 55 44 46 45 64 48 53 56 72 71 51 52 41 31 30 29 30 26 38 41 51 57 63 62 48 54 51 49 53 57 58 59 51 47 36 30 27 26 30 32 30 29 28 26
34 35 38 48 53 45 54 45 51 68 69 76 69 60 58 58 55 48 43 39 33 31 30 29 39 50 58 67 63 54 54 57 53 58 58 59 56 50 52 49 43 39 36 32 36 33 30 27 26
33 24 18 23 25 22 27 40 43 52 56 72 66 65 64 69 56 63 55 52 50 40 40 30 31 41 55 76 73 57 52 59 57 56 57 57 54 57 52 48 44 40 39 35 36 36 36 31 28
20 16 25 26 23 28 10 30 30 51 36 34 46 51 59 59 54 66 66 58 53 47 47 40 38 39 47 72 59 63 59 57 61 61 59 56 58 56 53 49 44 39 39 38 41 40 40 36 31
14 16 21 25 13 24 23 45 30 53 52 43 36 37 38 46 48 47 51 53 59 47 46 43 39 40 43 54 80 59 65 49 53 68 65 63 64 59 55 50 46 43 41 40 41 42 40 38 34
38 40 44 42 36 40 39 46 43 42 47 47 45 48 50 53 47 41 46 57 51 49 42 43 41 42 45 57 48 69 70 62 49 64 70 66 61 65 61 56 51 48 43 41 42 47 47 44 34
35 40 46 45 37 34 34 51 42 39 39 50 45 47 54 52 49 46 53 54 50 42 50 42 43 42 46 60 66 80 73 64 50 55 69 73 70 67 68 64 59 54 47 45 47 50 52 47 45
33 35 43 49 43 34 40 60 44 39 47 58 65 65 62 57 50 46 51 51 51 48 48 53 46 42 47 48 70 75 57 55 61 64 70 73 74 69 65 65 65 61 53 50 50 52 55 54 53
35 27 36 37 26 23 15 30 17 18 18 32 56 58 60 62 58 49 52 50 47 51 50 58 46 42 46 44 56 64 45 52 63 60 63 58 69 68 71 74 74 68 64 56 55 53 59 59 59
23 30 24 29 25 22 9 12 11 7 23 23 23 39 58 62 62 60 61 57 49 49 54 56 41 45 46 58 62 63 54 66 59 52 69 58 71 77 78 74 78 76 72 66 60 58 62 65 67
39 31 32 20 4 10 23 22 7 8 11 20 33 34 38 57 56 54 56 53 54 51 50 43 38 42 46 52 69 56 54 58 56 62 60 55 60 69 73 85 82 75 77 71 68 64 63 65 69
17 23 7 6 7 10 6 14 21 25 36 31 33 50 56 36 58 49 52 47 58 51 36 41 38 39 40 48 57 60 55 57 51 43 57 57 59 72 71 80 88 87 90 83 75 72 68 67 70
26 12 9 10 7 14 9 11 2 24 42 49 58 56 52 28 28 48 46 42 40 35 34 36 38 41 39 48 42 38 43 57 46 41 35 39 44 75 82 87 87 92 86 86 79 78 77 72 75
14 10 25 13 19 13 8 10 4 37 35 40 45 32 18 23 35 40 30 29 26 25 32 32 36 40 40 40 34 34 31 39 45 45 43 47 56 38 62 76 70 84 90 86 77 80 87 77 75
19 23 7 7 7 7 7 10 21 39 39 37 26 25 33 30 22 19 19 20 23 23 26 31 35 38 35 36 35 33 33 30 36 43 40 42 45 46 49 44 51 64 73 70 71 80 83 81 77
19 18 7 5 7 7 9 6 28 31 25 26 27 38 36 30 28 19 19 22 22 22 24 33 33 31 31 31 29 24 22 19 18 18 22 25 25 32 39 48 55 73 89 78 71 78 83 84 79
32 29 17 8 11 6 8 7 34 31 23 33 40 45 47 41 36 32 31 31 32 34 34 36 38 37 33 33 31 28 22 17 13 9 5 4 2 2 8 17 24 25 20 37 54 51 45 40 47
Wind_Direction_500mb
251 241 295 288 245 226 242 241 230 250 242 352 27 320 307 263 294 205 130 188 161 221 202 185 180 181 181 180 179 178 176 174 172 166 157 156 153 151 147 149 158 143 131 132 131 127 124 133 118
266 250 297 267 241 243 245 228 235 242 245 115 123 300 327 285 285 110 62 159 147 217 208 192 180 181 182 182 180 178 177 180 176 172 165 163 156 152 146 136 134 139 149 149 133 139 131 135 126
305 290 268 220 234 237 265 246 248 216 216 154 197 225 261 215 223 81 309 19 154 213 211 202 182 183 183 183 182 181 183 180 179 180 174 166 156 150 143 142 154 177 137 138 141 151 149 147 141
290 224 267 255 244 237 242 270 281 295 189 196 182 263 267 222 96 147 301 358 166 214 212 206 188 183 183 184 187 186 188 183 189 188 183 174 161 154 149 152 165 178 145 145 144 146 144 141 140
275 266 235 237 247 254 268 262 234 264 208 225 208 210 257 160 196 116 305 318 169 209 215 203 196 187 185 188 189 189 191 189 192 190 189 179 168 160 149 155 165 163 153 162 147 146 144 142 137
262 240 246 238 249 258 247 254 276 250 261 242 253 196 225 171 161 199 232 240 174 216 218 207 198 194 190 191 193 191 193 193 192 192 190 178 171 168 156 154 162 170 163 158 156 151 155 151 143
253 272 249 255 263 271 267 253 236 257 219 247 256 195 218 173 184 226 253 226 185 213 210 206 201 200 195 194 194 192 192 194 196 193 192 189 180 175 167 160 168 171 176 169 164 164 159 156 151
293 259 266 259 267 269 285 293 289 257 218 227 242 264 207 134 186 217 251 226 197 203 210 207 209 203 201 198 196 195 192 196 198 197 197 197 193 189 179 172 173 185 179 188 174 173 173 167 161
274 257 259 261 257 276 282 294 296 291 40 196 230 270 207 159 141 197 220 193 198 197 206 208 204 207 202 200 198 198 197 199 202 203 202 202 201 196 194 187 189 195 210 191 184 186 182 180 175
244 252 266 275 313 323 327 337 327 338 315 208 267 264 108 167 129 165 203 254 208 207 206 208 216 209 204 202 201 200 200 200 203 206 207 207 206 204 203 201 195 200 215 202 193 194 192 191 190
250 257 282 296 307 316 320 311 315 309 292 280 274 257 329 338 8 317 208 231 253 226 221 218 219 213 206 201 204 204 203 203 203 206 208 207 208 207 207 209 213 223 202 204 201 197 197 198 191
287 280 282 292 296 302 300 303 301 295 292 301 295 294 307 304 305 293 293 243 248 264 226 223 223 221 209 202 202 204 205 206 207 203 201 203 205 202 211 220 219 228 214 208 210 204 199 196 183
288 277 281 282 288 284 284 279 283 278 280 284 287 285 280 285 283 288 269 270 244 251 255 235 230 227 218 203 208 201 205 206 206 204 201 203 204 204 207 215 230 233 224 214 212 210 208 208 205
290 290 292 287 281 278 272 267 258 261 282 272 262 268 272 272 271 271 262 260 252 256 255 260 241 231 223 208 200 197 202 200 200 200 204 205 208 203 206 211 226 232 240 214 219 216 216 214 215
317 306 292 277 274 261 253 257 252 264 261 258 258 255 257 263 257 255 255 249 255 245 238 257 255 232 230 219 208 203 208 206 200 203 206 205 205 208 206 207 215 220 234 227 222 211 224 221 220
283 282 275 284 299 263 244 253 254 265 254 244 244 246 250 251 245 251 256 253 244 260 256 247 256 251 233 224 214 219 224 217 205 204 206 208 207 208 225 219 220 223 227 227 221 212 217 222 222
232 264 250 285 285 257 245 257 256 265 271 272 228 236 235 241 245 244 242 246 247 243 251 255 254 256 238 226 214 222 225 219 212 210 210 213 206 216 214 221 224 225 226 225 221 218 221 221 216
276 265 259 262 253 269 257 258 259 268 287 282 274 268 251 245 249 247 241 245 246 243 251 248 248 251 242 238 220 228 226 226 223 212 214 212 207 208 221 224 225 227 227 229 222 218 221 224 214
266 274 276 270 278 292 287 265 262 265 266 265 260 258 251 248 254 249 247 247 249 241 238 238 240 245 247 215 205 234 217 225 223 218 217 222 218 218 223 225 222 229 235 238 228 214 220 219 211
257 267 272 278 265 263 270 267 273 264 255 259 260 261 257 247 240 239 246 247 233 245 238 240 243 242 237 223 221 221 222 227 240 224 216 221 223 221 228 226 223 233 240 235 228 222 219 225 205
262 264 273 270 284 271 273 275 268 261 248 250 253 255 257 253 241 234 240 248 245 244 244 232 231 236 237 226 218 218 224 231 228 226 220 223 224 229 231 231 230 237 238 239 234 229 225 221 216
284 272 275 272 273 271 213 287 229 281 242 233 243 243 242 243 245 235 239 242 239 244 225 230 227 228 238 234 225 220 218 221 225 229 236 231 237 240 238 233 234 237 241 240 240 237 233 222 224
275 298 284 284 269 292 221 261 116 289 282 268 249 244 234 234 233 233 231 235 237 242 238 234 238 227 226 231 232 217 215 227 234 237 221 234 235 235 235 238 236 242 237 241 244 239 234 230 223
286 283 274 253 234 249 222 206 340 265 324 351 337 314 273 228 225 224 229 234 235 239 244 238 233 228 229 220 212 227 221 230 234 237 236 239 249 255 247 234 242 242 247 242 246 242 240 237 232
336 293 286 223 206 232 333 208 246 15 351 327 304 303 302 253 210 210 216 229 224 234 233 234 223 222 229 223 223 231 228 228 215 242 253 250 255 246 244 237 241 247 240 246 244 242 244 242 238
312 315 283 290 299 309 178 236 265 3 338 327 305 280 286 297 212 186 202 209 221 228 227 224 215 214 210 220 221 222 217 216 232 211 218 250 261 258 255 244 247 251 251 243 241 246 246 244 243
316 298 305 282 262 261 215 32 134 346 340 330 308 248 205 112 131 161 180 201 223 226 224 212 205 203 196 202 199 213 231 212 222 232 240 247 247 259 227 244 252 244 248 246 250 245 247 245 244
284 297 297 219 293 286 38 59 333 344 345 348 357 77 94 102 118 140 171 187 201 207 200 192 187 182 180 182 188 190 199 208 213 233 236 242 250 254 249 242 251 250 241 243 241 245 250 249 241
350 353 270 281 291 324 334 86 349 341 350 0 2 41 66 89 111 147 161 164 164 169 167 161 161 154 153 164 172 173 187 194 211 225 238 244 252 255 254 250 251 245 238 231 237 231 233 233 244
14 5 355 336 3 317 300 80 355 347 3 26 22 37 51 77 95 113 127 129 139 137 136 137 132 135 134 135 140 137 139 139 144 150 159 107 75 335 277 243 236 236 244 244 233 240 233 228 217
Wind_Speed_850mb
19 10 13 17 10 10 26 28 27 28 10 2 11 13 2 24 5 4 19 17 22 31 29 44 45 44 43 40 38 36 35 35 31 28 25 22 23 22 21 19 12 16 35 29 29 28 23 28 22
12 13 12 15 13 22 25 28 30 22 27 19 10 9 10 13 23 10 6 10 25 32 37 46 46 46 45 41 39 38 37 34 33 28 25 22 21 19 18 23 21 20 28 24 21 32 26 28 23
6 10 11 8 15 38 16 20 21 34 30 25 11 7 11 6 9 10 2 7 32 37 37 42 48 47 45 42 41 39 38 36 32 28 26 25 23 23 24 28 28 23 26 24 19 25 24 22 21
6 9 15 15 43 36 45 31 39 19 26 28 29 8 21 10 8 3 9 7 30 37 37 36 47 47 46 45 42 39 38 36 32 29 27 27 26 23 21 22 21 15 28 22 21 23 23 20 19
10 15 18 26 48 45 35 35 44 31 21 32 34 19 31 11 9 9 7 3 27 37 37 38 46 48 47 46 43 40 38 37 34 31 30 30 28 23 19 20 20 21 22 15 22 21 22 20 19
13 15 17 33 45 35 32 51 56 26 25 27 31 24 21 16 19 19 10 7 25 37 35 43 46 50 50 48 45 41 39 38 36 33 35 32 29 25 19 19 22 24 21 19 21 21 20 20 18
19 15 30 41 39 38 29 45 39 41 28 31 34 15 35 21 14 13 15 15 29 34 37 46 47 50 50 49 47 43 42 40 38 37 37 35 29 26 21 19 22 25 23 13 18 19 17 18 16
18 11 26 26 29 47 36 60 66 42 33 46 48 22 17 22 8 5 4 14 22 30 37 41 50 53 52 50 48 44 43 41 40 39 38 37 32 26 23 20 22 20 22 18 20 20 18 16 15
17 11 19 25 30 36 45 28 54 37 3 5 20 31 6 9 16 10 3 12 18 25 38 43 48 55 56 55 51 48 46 44 42 41 40 39 37 31 25 23 22 22 21 18 22 21 18 15 14
11 15 18 19 21 27 40 38 48 29 30 4 16 18 8 7 5 11 6 8 25 27 38 49 51 60 60 58 56 54 51 50 47 44 42 42 41 36 32 27 26 24 26 22 25 24 21 17 13
12 26 30 45 50 44 35 43 47 39 23 12 22 33 10 7 8 6 11 15 22 24 36 44 54 57 60 61 60 60 59 55 52 51 48 45 45 40 35 32 30 25 23 28 29 28 24 19 14
27 34 41 49 49 40 33 52 41 52 46 48 45 35 32 20 18 19 11 16 20 26 34 42 53 55 58 61 59 58 60 55 57 56 53 52 50 42 41 38 33 29 27 30 30 29 26 26 23
28 34 44 48 45 42 44 42 46 68 57 58 60 52 45 25 35 29 24 24 31 15 30 35 44 54 57 64 62 51 55 49 52 56 55 58 55 48 45 38 32 29 25 31 30 30 31 27 26
36 48 45 52 54 55 44 46 45 64 48 53 56 72 71 51 52 41 31 30 29 30 26 38 41 51 57 63 62 48 54 51 49 53 57 58 59 51 47 36 30 27 26 30 32 30 29 28 26
34 35 38 48 53 45 54 45 51 68 69 76 69 60 58 58 55 48 43 39 33 31 30 29 39 50 58 67 63 54 54 57 53 58 58 59 56 50 52 49 43 39 36 32 36 33 30 27 26
33 24 18 23 25 22 27 40 43 52 56 72 66 65 64 69 56 63 55 52 50 40 40 30 31 41 55 76 73 57 52 59 57 56 57 57 54 57 52 48 44 40 39 35 36 36 36 31 28
20 16 25 26 23 28 10 30 30 51 36 34 46 51 59 59 54 66 66 58 53 47 47 40 38 39 47 72 59 63 59 57 61 61 59 56 58 56 53 49 44 39 39 38 41 40 40 36 31
14 16 21 25 13 24 23 45 30 53 52 43 36 37 38 46 48 47 51 53 59 47 46 43 39 40 43 54 80 59 65 49 53 68 65 63 64 59 55 50 46 43 41 40 41 42 40 38 34
38 40 44 42 36 40 39 46 43 42 47 47 45 48 50 53 47 41 46 57 51 49 42 43 41 42 45 57 48 69 70 62 49 64 70 66 61 65 61 56 51 48 43 41 42 47 47 44 34
35 40 46 45 37 34 34 51 42 39 39 50 45 47 54 52 49 46 53 54 50 42 50 42 43 42 46 60 66 80 73 64 50 55 69 73 70 67 68 64 59 54 47 45 47 50 52 47 45
33 35 43 49 43 34 40 60 44 39 47 58 65 65 62 57 50 46 51 51 51 48 48 53 46 42 47 48 70 75 57 55 61 64 70 73 74 69 65 65 65 61 53 50 50 52 55 54 53
35 27 36 37 26 23 15 30 17 18 18 32 56 58 60 62 58 49 52 50 47 51 50 58 46 42 46 44 56 64 45 52 63 60 63 58 69 68 71 74 74 68 64 56 55 53 59 59 59
23 30 24 29 25 22 9 12 11 7 23 23 23 39 58 62 62 60 61 57 49 49 54 56 41 45 46 58 62 63 54 66 59 52 69 58 71 77 78 74 78 76 72 66 60 58 62 65 67
39 31 32 20 4 10 23 22 7 8 11 20 33 34 38 57 56 54 56 53 54 51 50 43 38 42 46 52 69 56 54 58 56 62 60 55 60 69 73 85 82 75 77 71 68 64 63 65 69
17 23 7 6 7 10 6 14 21 25 36 31 33 50 56 36 58 49 52 47 58 51 36 41 38 39 40 48 57 60 55 57 51 43 57 57 59 72 71 80 88 87 90 83 75 72 68 67 70
26 12 9 10 7 14 9 11 2 24 42 49 58 56 52 28 28 48 46 42 40 35 34 36 38 41 39 48 42 38 43 57 46 41 35 39 44 75 82 87 87 92 86 86 79 78 77 72 75
14 10 25 13 19 13 8 10 4 37 35 40 45 32 18 23 35 40 30 29 26 25 32 32 36 40 40 40 34 34 31 39 45 45 43 47 56 38 62 76 70 84 90 86 77 80 87 77 75
19 23 7 7 7 7 7 10 21 39 39 37 26 25 33 30 22 19 19 20 23 23 26 31 35 38 35 36 35 33 33 30 36 43 40 42 45 46 49 44 51 64 73 70 71 80 83 81 77
19 18 7 5 7 7 9 6 28 31 25 26 27 38 36 30 28 19 19 22 22 22 24 33 33 31 31 31 29 24 22 19 18 18 22 25 25 32 39 48 55 73 89 78 71 78 83 84 79
32 29 17 8 11 6 8 7 34 31 23 33 40 45 47 41 36 32 31 31 32 34 34 36 38 37 33 33 31 28 22 17 13 9 5 4 2 2 8 17 24 25 20 37 54 51 45 40 47
Wind_Direction_850mb
251 241 295 288 245 226 242 241 230 250 242 352 27 320 307 263 294 205 130 188 161 221 202 185 180 181 181 180 179 178 176 174 172 166 157 156 153 151 147 149 158 143 131 132 131 127 124 133 118
266 250 297 267 241 243 245 228 235 242 245 115 123 300 327 285 285 110 62 159 147 217 208 192 180 181 182 182 180 178 177 180 176 172 165 163 156 152 146 136 134 139 149 149 133 139 131 135 126
305 290 268 220 234 237 265 246 248 216 216 154 197 225 261 215 223 81 309 19 154 213 211 202 182 183 183 183 182 181 183 180 179 180 174 166 156 150 143 142 154 177 137 138 141 151 149 147 141
290 224 267 255 244 237 242 270 281 295 189 196 182 263 267 222 96 147 301 358 166 214 212 206 188 183 183 184 187 186 188 183 189 188 183 174 161 154 149 152 165 178 145 145 144 146 144 141 140
275 266 235 237 247 254 268 262 234 264 208 225 208 210 257 160 196 116 305 318 169 209 215 203 196 187 185 188 189 189 191 189 192 190 189 179 168 160 149 155 165 163 153 162 147 146 144 142 137
262 240 246 238 249 258 247 254 276 250 261 242 253 196 225 171 161 199 232 240 174 216 218 207 198 194 190 191 193 191 193 193 192 192 190 178 171 168 156 154 162 170 163 158 156 151 155 151 143
253 272 249 255 263 271 267 253 236 257 219 247 256 195 218 173 184 226 253 226 185 213 210 206 201 200 195 194 194 192 192 194 196 193 192 189 180 175 167 160 168 171 176 169 164 164 159 156 151
293 259 266 259 267 269 285 293 289 257 218 227 242 264 207 134 186 217 251 226 197 203 210 207 209 203 201 198 196 195 192 196 198 197 197 197 193 189 179 172 173 185 179 188 174 173 173 167 161
274 257 259 261 257 276 282 294 296 291 40 196 230 270 207 159 141 197 220 193 198 197 206 208 204 207 202 200 198 198 197 199 202 203 202 202 201 196 194 187 189 195 210 191 184 186 182 180 175
244 252 266 275 313 323 327 337 327 338 315 208 267 264 108 167 129 165 203 254 208 207 206 208 216 209 204 202 201 200 200 200 203 206 207 207 206 204 203 201 195 200 215 202 193 194 192 191 190
250 257 282 296 307 316 320 311 315 309 292 280 274 257 329 338 8 317 208 231 253 226 221 218 219 213 206 201 204 204 203 203 203 206 208 207 208 207 207 209 213 223 202 204 201 197 197 198 191
287 280 282 292 296 302 300 303 301 295 292 301 295 294 307 304 305 293 293 243 248 264 226 223 223 221 209 202 202 204 205 206 207 203 201 203 205 202 211 220 219 228 214 208 210 204 199 196 183
288 277 281 282 288 284 284 279 283 278 280 284 287 285 280 285 283 288 269 270 244 251 255 235 230 227 218 203 208 201 205 206 206 204 201 203 204 204 207 215 230 233 224 214 212 210 208 208 205
290 290 292 287 281 278 272 267 258 261 282 272 262 268 272 272 271 271 262 260 252 256 255 260 241 231 223 208 200 197 202 200 200 200 204 205 208 203 206 211 226 232 240 214 219 216 216 214 215
317 306 292 277 274 261 253 257 252 264 261 258 258 255 257 263 257 255 255 249 255 245 238 257 255 232 230 219 208 203 208 206 200 203 206 205 205 208 206 207 215 220 234 227 222 211 224 221 220
283 282 275 284 299 263 244 253 254 265 254 244 244 246 250 251 245 251 256 253 244 260 256 247 256 251 233 224 214 219 224 217 205 204 206 208 207 208 225 219 220 223 227 227 221 212 217 222 222
232 264 250 285 285 257 245 257 256 265 271 272 228 236 235 241 245 244 242 246 247 243 251 255 254 256 238 226 214 222 225 219 212 210 210 213 206 216 214 221 224 225 226 225 221 218 221 221 216
276 265 259 262 253 269 257 258 259 268 287 282 274 268 251 245 249 247 241 245 246 243 251 248 248 251 242 238 220 228 226 226 223 212 214 212 207 208 221 224 225 227 227 229 222 218 221 224 214
266 274 276 270 278 292 287 265 262 265 266 265 260 258 251 248 254 249 247 247 249 241 238 238 240 245 247 215 205 234 217 225 223 218 217 222 218 218 223 225 222 229 235 238 228 214 220 219 211
257 267 272 278 265 263 270 267 273 264 255 259 260 261 257 247 240 239 246 247 233 245 238 240 243 242 237 223 221 221 222 227 240 224 216 221 223 221 228 226 223 233 240 235 228 222 219 225 205
262 264 273 270 284 271 273 275 268 261 248 250 253 255 257 253 241 234 240 248 245 244 244 232 231 236 237 226 218 218 224 231 228 226 220 223 224 229 231 231 230 237 238 239 234 229 225 221 216
284 272 275 272 273 271 213 287 229 281 242 233 243 243 242 243 245 235 239 242 239 244 225 230 227 228 238 234 225 220 218 221 225 229 236 231 237 240 238 233 234 237 241 240 240 237 233 222 224
275 298 284 284 269 292 221 261 116 289 282 268 249 244 234 234 233 233 231 235 237 242 238 234 238 227 226 231 232 217 215 227 234 237 221 234 235 235 235 238 236 242 237 241 244 239 234 230 223
286 283 274 253 234 249 222 206 340 265 324 351 337 314 273 228 225 224 229 234 235 239 244 238 233 228 229 220 212 227 221 230 234 237 236 239 249 255 247 234 242 242 247 242 246 242 240 237 232
336 293 286 223 206 232 333 208 246 15 351 327 304 303 302 253 210 210 216 229 224 234 233 234 223 222 229 223 223 231 228 228 215 242 253 250 255 246 244 237 241 247 240 246 244 242 244 242 238
312 315 283 290 299 309 178 236 265 3 338 327 305 280 286 297 212 186 202 209 221 228 227 224 215 214 210 220 221 222 217 216 232 211 218 250 261 258 255 244 247 251 251 243 241 246 246 244 243
316 298 305 282 262 261 215 32 134 346 340 330 308 248 205 112 131 161 180 201 223 226 224 212 205 203 196 202 199 213 231 212 222 232 240 247 247 259 227 244 252 244 248 246 250 245 247 245 244
284 297 297 219 293 286 38 59 333 344 345 348 357 77 94 102 118 140 171 187 201 207 200 192 187 182 180 182 188 190 199 208 213 233 236 242 250 254 249 242 251 250 241 243 241 245 250 249 241
350 353 270 281 291 324 334 86 349 341 350 0 2 41 66 89 111 147 161 164 164 169 167 161 161 154 153 164 172 173 187 194 211 225 238 244 252 255 254 250 251 245 238 231 237 231 233 233 244
14 5 355 336 3 317 300 80 355 347 3 26 22 37 51 77 95 113 127 129 139 137 136 137 132 135 134 135 140 137 139 139 144 150 159 107 75 335 277 243 236 236 244 244 233 240 233 228 217